Date,TemperatureHighF,TemperatureAvgF,TemperatureLowF,DewpointHighF,DewpointAvgF,DewpointLowF,HumidityHigh,HumidityAvg,HumidityLow,PressureMaxIn,PressureMinIn,WindSpeedMaxMPH,WindSpeedAvgMPH,GustSpeedMaxMPH,PrecipitationSumIn
2013-2-1,16.2,3.5,-5.8,2.7,-9.4,-18.1,55,54,53,29.35,29.06,10,3,11,0.00
2013-2-2,24.3,17.6,13.6,10.4,3.0,-2.0,61,52,43,29.12,28.97,15,3,15,0.00
2013-2-3,23.5,19.9,13.6,14.4,5.5,-2.0,73,54,41,29.12,28.88,15,3,15,0.00
2013-2-4,27.3,22.0,14.2,12.0,7.4,1.0,65,53,43,28.97,28.79,11,2,11,0.00
2013-2-5,38.8,27.8,15.6,20.7,14.1,3.7,68,56,46,29.09,28.79,14,4,17,0.04
2013-2-6,42.6,30.5,15.3,25.3,17.3,5.8,74,58,41,29.15,28.97,9,2,9,0.00
2013-2-7,37.4,34.9,30.0,34.8,29.6,22.4,96,82,59,29.12,28.91,12,1,12,0.35
2013-2-8,30.4,29.0,27.5,22.4,18.8,15.4,76,66,54,29.32,29.12,0,0,0,0.00
2013-2-9,34.2,29.5,26.6,24.7,20.4,18.2,79,69,56,29.29,28.94,8,1,9,0.00
2013-2-10,47.3,37.8,30.4,46.8,32.6,18.7,98,83,43,28.97,28.35,21,5,21,0.67
2013-2-11,34.0,29.9,25.7,18.7,12.0,8.4,53,47,42,29.09,28.50,21,6,21,0.00
2013-2-12,44.1,31.4,23.9,15.2,11.5,6.5,54,44,30,29.12,28.88,11,3,13,0.00
2013-2-13,47.7,36.2,26.6,22.2,18.6,14.7,68,50,34,28.88,28.67,11,2,11,0.00
2013-2-14,40.8,38.5,36.0,23.0,20.1,17.6,58,48,39,28.67,28.64,10,4,10,0.00
2013-2-17,40.3,31.9,13.6,13.0,9.8,1.2,58,40,29,29.12,28.76,11,5,13,0.00
2013-2-18,52.3,33.1,14.5,27.1,16.3,-3.4,71,50,31,28.79,28.56,17,5,19,0.00
2013-2-19,21.2,11.5,4.8,-3.1,-8.3,-15.2,45,40,33,29.29,28.79,22,6,22,0.00
2013-2-20,28.2,14.8,3.0,3.0,-6.4,-16.8,52,38,28,29.38,29.29,10,2,10,0.00
2013-2-21,25.9,21.0,13.3,22.1,8.5,-0.4,89,59,44,29.35,28.91,10,3,11,0.00
2013-2-22,32.2,26.1,23.0,26.5,18.3,10.8,88,73,56,28.94,28.79,9,2,10,0.00
2013-2-23,34.2,24.0,13.8,12.5,8.6,1.0,63,52,37,28.97,28.91,10,2,10,0.04
2013-2-24,41.0,23.2,7.5,17.6,7.6,-4.9,63,52,34,29.09,28.97,6,0,6,0.04
2013-2-25,44.1,31.4,21.9,22.5,18.1,11.6,72,58,38,29.12,28.91,6,1,8,0.00
2013-2-26,35.6,32.8,30.7,28.6,22.0,17.2,88,66,47,28.91,28.64,15,5,15,0.00
2013-2-27,33.3,31.6,29.7,27.4,26.2,24.5,89,80,72,28.88,28.70,12,4,12,0.00
2013-2-28,36.1,31.2,27.7,25.7,21.5,18.1,79,68,50,29.12,28.85,11,4,13,0.08